sat.trackr.live / text

‹ back to catalog

LUCH 5B (SDCM/PRN 125)

NORAD 38977 · 2012-061A

PAYLOAD ACTIVE UNKNOWN

§ Identity

Operator
Country
CIS
Launch date
2012-11-02
Launch site
TYMSC
Launch vehicle
Mass (kg)
RCS (m²)
251.19

Purposes: comms, nav

External: N2YO · Heavens-Above · Gunter

§ Orbital elements

Epoch: 2026-05-25T00:14:38.122944Z

Period
1,436.12 min
Inclination
10.4363°
Eccentricity
0.0001291
Mean motion
1.00270191 rev/d
Perigee alt
35,781.6 km
Apogee alt
35,792.5 km
Semi-major
42,165.2 km
B*
0.0000e+0
RAAN
50.1131°
Arg perigee
157.1399°
Mean anomaly
22.6486°
Rev number
4,937

§ Raw data

LUCH 5B (SDCM/PRN 125)1 38977U 12061A   26145.01016346 -.00000142  00000+0  00000+0 0  99992 38977  10.4363  50.1131 0001291 157.1399  22.6486  1.00270191 49374

JSON: /api/v1/satellites/38977 · /tle

For live sub-satellite position, see the globe view (requires WebGL).

§ Visibility from observer

Set your observer location to see the next 7 days of passes ≥ 10°. The values pass through the URL so the page stays shareable.

No JS? Fill the form by hand. The geolocation button needs JavaScript.